Weather History for Altus, OK

Change the Weather History Date:

Sunday, June 30, 2013

  Actual Average (KLTS) Record (KLTS)
Temperature  
Mean Temperature 83 °F -  
Max Temperature 94 °F 91 °F 104 °F (1998)
Min Temperature 73 °F 69 °F 60 °F (2008)
Cooling Degree Days 18    
Growing Degree Days 33 (Base 50)    
Moisture  
Dew Point 50 °F    
Average Humidity 33    
Maximum Humidity 54    
Minimum Humidity 20    
Precipitation  
Precipitation 0.00 in - - ()
Sea Level Pressure  
Sea Level Pressure 30.00 in    
Wind  
Wind Speed 9 mph (NNE)    
Max Wind Speed 20 mph    
Max Gust Speed 26 mph    
Visibility 10 miles    
Events Rain , Thunderstorm    
Averages and records for this station are not official NWS values.
T = Trace of Precipitation, MM = Missing Value Source: NWS Daily Summary

Daily Weather History Graph

Daily Weather History Graph

Search for Another Location

Airport:

Trip Planner

Search our weather history database for the weather conditions in past years. The results will help you decide how hot, cold, wet, or windy it might be!

Date:

Astronomy

Jun. 30, 2013 Rise Set
Actual Time 6:27 AM CDT 8:54 PM CDT
Civil Twilight 5:58 AM CDT 9:23 PM CDT
Nautical Twilight 5:21 AM CDT 10:00 PM CDT
Astronomical Twilight 4:41 AM CDT 10:40 PM CDT
Moon 1:15 AM CDT (6/30) 2:21 PM CDT (6/30)
Length of Visible Light 15h 25m
Length of Day
14h 26m
Last Quarter, 45% of the Moon is Illuminated
Jun 30
Last Quarter
Jul 8
New
Jul 15
First Quarter
Jul 22
Full
Jul 29
Last Quarter

Hourly Weather History & Observations

Time (CDT) Temp. Heat Index Dew Point Humidity Pressure Visibility Wind Dir Wind Speed Gust Speed Precip Events Conditions
12:15 AM 80.1 °F 80.2 °F 55.6 °F 43% 29.95 in 10.0 mi Calm Calm - N/A   Clear
12:35 AM 80.4 °F 80.4 °F 55.6 °F 42% 29.95 in 10.0 mi East 3.5 mph - N/A   Clear
12:55 AM 79.7 °F - 55.9 °F 44% 29.96 in 10.0 mi ENE 4.6 mph - N/A   Clear
1:15 AM 79.0 °F - 56.3 °F 46% 29.96 in 10.0 mi ENE 6.9 mph - N/A   Clear
1:35 AM 79.7 °F - 56.3 °F 44% 29.95 in 10.0 mi NE 5.8 mph - N/A   Clear
1:55 AM 77.0 °F - 57.7 °F 51% 29.95 in 10.0 mi NE 6.9 mph - N/A   Clear
2:15 AM 79.0 °F - 55.9 °F 45% 29.96 in 10.0 mi NE 8.1 mph - N/A   Clear
2:35 AM 79.3 °F - 56.3 °F 45% 29.96 in 10.0 mi NE 11.5 mph - N/A   Clear
2:55 AM 79.2 °F - 55.9 °F 45% 29.97 in 10.0 mi NE 11.5 mph - N/A   Clear
3:15 AM 77.9 °F - 55.8 °F 46% 29.99 in 10.0 mi NNE 9.2 mph - N/A   Clear
3:35 AM 77.0 °F - 54.3 °F 45% 30.00 in 10.0 mi NE 9.2 mph - N/A   Clear
3:55 AM 78.1 °F - 53.2 °F 42% 29.99 in 10.0 mi NE 11.5 mph - N/A   Scattered Clouds
4:15 AM 77.2 °F - 53.1 °F 43% 30.01 in 10.0 mi NE 12.7 mph - N/A   Scattered Clouds
4:35 AM 77.5 °F - 52.3 °F 41% 30.01 in 10.0 mi NE 11.5 mph - N/A   Scattered Clouds
4:55 AM 76.8 °F - 53.1 °F 44% 30.01 in 10.0 mi ENE 8.1 mph - N/A Thunderstorm Clear
5:15 AM 76.8 °F - 52.7 °F 43% 30.01 in 10.0 mi ENE 6.9 mph - N/A   Clear
5:35 AM 74.7 °F - 54.0 °F 48% 30.03 in 10.0 mi ENE 4.6 mph 19.6 mph N/A   Scattered Clouds
5:55 AM 73.4 °F - 54.5 °F 51% 30.04 in 10.0 mi NNW 3.5 mph - N/A   Scattered Clouds
6:15 AM 73.6 °F - 54.5 °F 51% 30.04 in 10.0 mi Calm Calm - N/A   Scattered Clouds
6:35 AM 73.9 °F - 54.0 °F 50% 30.05 in 10.0 mi North 11.5 mph - N/A   Scattered Clouds
6:55 AM 73.6 °F - 54.1 °F 50% 30.03 in 10.0 mi North 3.5 mph - N/A Rain Light Rain
7:15 AM 73.2 °F - 55.6 °F 54% 30.04 in 10.0 mi North 8.1 mph - N/A   Scattered Clouds
7:35 AM 74.8 °F - 55.4 °F 51% 30.04 in 10.0 mi North 6.9 mph - N/A   Clear
7:55 AM 75.7 °F - 55.2 °F 49% 30.04 in 10.0 mi North 5.8 mph - N/A   Clear
8:15 AM 78.8 °F - 52.7 °F 40% 30.04 in 10.0 mi NNE 11.5 mph - N/A   Clear
8:35 AM 80.4 °F - 50.5 °F 35% 30.04 in 10.0 mi NNE 13.8 mph - N/A   Clear
8:55 AM 80.2 °F - 50.9 °F 36% 30.04 in 10.0 mi NNE 9.2 mph - N/A   Clear
9:15 AM 81.5 °F - 51.4 °F 35% 30.04 in 10.0 mi NE 11.5 mph - N/A   Clear
9:35 AM 83.3 °F - 51.3 °F 33% 30.04 in 10.0 mi NE 15.0 mph - N/A   Clear
9:55 AM 83.7 °F - 50.4 °F 31% 30.04 in 10.0 mi ENE 12.7 mph - N/A   Clear
10:15 AM 84.4 °F - 51.3 °F 32% 30.04 in 10.0 mi NE 11.5 mph 17.3 mph N/A   Clear
10:35 AM 84.6 °F - 49.5 °F 30% 30.04 in 10.0 mi NNE 13.8 mph 18.4 mph N/A   Clear
10:55 AM 85.1 °F - 49.8 °F 29% 30.04 in 10.0 mi NNE 12.7 mph - N/A   Clear
11:15 AM 84.7 °F - 50.2 °F 30% 30.04 in 10.0 mi NE 12.7 mph - N/A   Clear
11:35 AM 86.0 °F - 49.5 °F 28% 30.04 in 10.0 mi NNE 15.0 mph 21.9 mph N/A   Clear
11:55 AM 87.6 °F - 48.7 °F 26% 30.04 in 10.0 mi NE 13.8 mph 24.2 mph N/A   Clear
12:15 PM 88.7 °F - 48.7 °F 25% 30.04 in 10.0 mi NE 13.8 mph 19.6 mph N/A   Clear
12:35 PM 89.1 °F - 48.4 °F 25% 30.04 in 10.0 mi North 16.1 mph 20.7 mph N/A   Clear
12:55 PM 89.8 °F - 48.7 °F 24% 30.03 in 10.0 mi NE 16.1 mph 21.9 mph N/A   Clear
1:15 PM 89.8 °F - 48.2 °F 24% 30.02 in 10.0 mi NNE 13.8 mph 21.9 mph N/A   Clear
1:35 PM 91.4 °F - 48.7 °F 23% 30.02 in 7.0 mi North 13.8 mph 26.5 mph N/A   Clear
1:55 PM 90.7 °F - 49.3 °F 24% 30.02 in 10.0 mi North 15.0 mph 24.2 mph N/A   Clear
2:15 PM 90.7 °F - 48.7 °F 24% 30.01 in 10.0 mi North 13.8 mph 23.0 mph N/A   Clear
2:35 PM 90.5 °F - 48.2 °F 23% 30.01 in 10.0 mi NNE 19.6 mph 23.0 mph N/A   Clear
2:55 PM 88.9 °F - 47.8 °F 24% 30.00 in 10.0 mi NNE 15.0 mph 21.9 mph N/A   Clear
3:15 PM 91.2 °F - 48.6 °F 23% 29.99 in 10.0 mi North 10.4 mph 18.4 mph N/A   Clear
3:35 PM 92.5 °F - 48.9 °F 22% 29.99 in 10.0 mi North 15.0 mph 19.6 mph N/A   Clear
3:55 PM 92.7 °F - 48.9 °F 22% 29.98 in 10.0 mi North 15.0 mph 19.6 mph N/A   Clear
4:15 PM 93.2 °F - 48.0 °F 21% 29.97 in 10.0 mi NNE 12.7 mph 24.2 mph N/A   Clear
4:35 PM 92.1 °F - 47.3 °F 21% 29.97 in 10.0 mi NNE 13.8 mph 21.9 mph N/A   Clear
4:55 PM 93.4 °F - 46.9 °F 20% 29.97 in 10.0 mi North 12.7 mph 19.6 mph N/A   Clear
5:15 PM 91.4 °F - 46.4 °F 21% 29.96 in 10.0 mi NNE 15.0 mph 21.9 mph N/A   Clear
5:35 PM 93.6 °F - 46.2 °F 20% 29.96 in 10.0 mi NNW 10.4 mph 21.9 mph N/A   Clear
5:55 PM 93.0 °F - 45.7 °F 20% 29.96 in 10.0 mi NNE 10.4 mph 25.3 mph N/A   Clear
6:15 PM 93.2 °F - 45.9 °F 20% 29.95 in 10.0 mi North 12.7 mph 24.2 mph N/A   Clear
6:35 PM 90.9 °F - 45.9 °F 21% 29.95 in 10.0 mi NNE 13.8 mph 20.7 mph N/A   Clear
6:55 PM 91.6 °F - 45.9 °F 21% 29.95 in 10.0 mi North 13.8 mph 23.0 mph N/A   Clear
7:15 PM 90.9 °F - 45.5 °F 21% 29.96 in 10.0 mi North 10.4 mph 25.3 mph N/A   Clear
7:35 PM 90.3 °F - 46.0 °F 22% 29.96 in 10.0 mi NNE 13.8 mph 21.9 mph N/A   Clear
7:55 PM 89.8 °F - 45.7 °F 22% 29.95 in 10.0 mi NNE 12.7 mph 20.7 mph N/A   Clear
8:15 PM 87.8 °F - 45.9 °F 23% 29.96 in 10.0 mi NE 11.5 mph - N/A   Clear
8:35 PM 86.4 °F - 47.8 °F 26% 29.97 in 10.0 mi ENE 17.3 mph 24.2 mph N/A   Clear
8:55 PM 84.6 °F - 48.7 °F 29% 29.97 in 10.0 mi ENE 9.2 mph - N/A   Clear
9:15 PM 83.5 °F - 48.6 °F 30% 29.98 in 10.0 mi ENE 10.4 mph - N/A   Clear
9:35 PM 82.8 °F - 47.8 °F 29% 29.99 in 10.0 mi ENE 12.7 mph - N/A   Clear
9:55 PM 81.7 °F - 47.3 °F 30% 30.01 in 10.0 mi ENE 11.5 mph - N/A   Clear
10:15 PM 80.8 °F - 47.3 °F 31% 30.03 in 10.0 mi ENE 10.4 mph - N/A   Clear
10:35 PM 79.7 °F - 47.5 °F 32% 30.04 in 10.0 mi ENE 8.1 mph - N/A   Clear
10:55 PM 78.1 °F - 47.8 °F 34% 30.04 in 10.0 mi ENE 6.9 mph - N/A   Clear
11:15 PM 77.0 °F - 48.2 °F 36% 30.05 in 10.0 mi NE 6.9 mph - N/A   Clear
11:35 PM 76.3 °F - 48.2 °F 37% 30.05 in 10.0 mi NE 9.2 mph - N/A   Clear
11:55 PM 77.0 °F - 48.2 °F 36% 30.05 in 10.0 mi ENE 10.4 mph - N/A   Clear